Regional Weather Roundup
Issued by NWS

Home | Current Version | Previous Version | Graphics & Text | Print | Product List | Glossary On
Versions: 1 2 3 4 5 6 7 8 9 10 11 12 13 14 15 16 17 18 19 20 21 22 23 24 25 26 27 28 29 30 31 32 33 34 35 36 37 38 39 40 41 42 43 44 45 46 47 48 49 50
000
ASUS45 KABQ 231110
RWRNM
NEW MEXICO REGIONAL WEATHER ROUNDUP
NATIONAL WEATHER SERVICE ALBUQUERQUE NM
500 AM MDT SUN JUL 23 2017

NOTE: "FAIR" MEANS FEW OR NO CLOUDS BELOW 12,000 FEET AGL WITH NO
       SIGNIFICANT WEATHER OR OBSTRUCTIONS TO VISION.

      THIS PRODUCT IS RELEASED AS TWO VERSIONS.  ONE VERSION NEAR
      THE TOP OF THE HOUR CONTAINING PRELIMINARY DATA FROM ALBUQUERQUE
      AND OTHER STATIONS.  A FINAL VERSION WITH ADDITIONAL DATA IS
      ISSUED ABOUT 10 MINUTES AFTER THE HOUR.

NMZ501-503-504-510>518-231200-
NORTHWEST PLATEAU/NORTHCENTRAL MOUNTAINS

CITY           SKY/WX    TMP DP  RH WIND       PRES   REMARKS
FARMINGTON     FAIR      65  54  67 E8        30.18R
LOS ALAMOS     FAIR      61  48  62 SW3       30.33S
SANTA FE       FAIR      58  54  86 N6        30.26F
TAOS           FAIR      57  46  67 N7        30.33S
ANGEL FIRE     CLOUDY    49  48  95 CALM      30.43S

$$
NMZ402-403-502-505>509-231200-
WESTCENTRAL MOUNTAINS/SOUTHWEST MOUNTAINS

CITY           SKY/WX    TMP DP  RH WIND       PRES   REMARKS
GALLUP         FAIR      56  52  86 CALM      30.23S
GRANTS         FAIR      61  52  72 S3        30.26S
SILVER CITY    FAIR      63  62  97 CALM      30.15S

$$
NMZ407-409-411-412-231200-
SOUTHERN DESERTS

CITY           SKY/WX    TMP DP  RH WIND       PRES   REMARKS
DEMING         FAIR      68  66  93 SE5       30.08F
LAS CRUCES     FAIR      68  65  92 CALM      30.10R
HOLLOMAN AFB   MOCLDY    72  60  66 S3        30.08S
ALAMOGORDO     MOCLDY    68  61  77 SW5       30.08R
T OR C         FAIR      69  59  70 N5        30.12S

$$
NMZ519>523-231200-
CENTRAL VALLEYS/CENTRAL HIGHLANDS

CITY           SKY/WX    TMP DP  RH WIND       PRES   REMARKS
ALBUQUERQUE    FAIR      70  52  52 NE10      30.18S
DOUBLE EAGLE   FAIR      60  53  79 NW5       30.21F
MORIARTY ARPT  FAIR      57  55  95 NW8       30.26S
CLINES CORNERS FAIR      56  50  80 N7        30.29F
BELEN          FAIR      64  58  80 CALM      30.17S
SOCORRO        FAIR      67  60  79 W6        30.14F

$$
NMZ524>526-539-540-231200-
SOUTHCENTRAL MOUNTAINS

CITY           SKY/WX    TMP DP  RH WIND       PRES   REMARKS
RUIDOSO        FAIR      57  55  94 W7        30.27S

$$
NMZ527>531-231200-
NORTHEAST HIGHLANDS/NORTHEAST PLAINS

CITY           SKY/WX    TMP DP  RH WIND       PRES   REMARKS
LAS VEGAS      FAIR      59  49  69 N7        30.29F
RATON          FAIR      57  53  86 N6        30.27F
CLAYTON        LGT RAIN  64  60  87 N9        30.18R

$$
NMZ532>537-231200-
EASTCENTRAL PLAINS

CITY           SKY/WX    TMP DP  RH WIND       PRES   REMARKS
SANTA ROSA     FAIR      65  58  77 N5        30.14S
TUCUMCARI      FAIR      67  64  90 CALM      30.08F
CANNON AFB     CLOUDY    69  67  91 N8        30.12F
CLOVIS AIRPORT FAIR      70  60  70 N7        30.12S

$$
NMZ028-029-538-231200-
SOUTHEAST PLAINS

CITY           SKY/WX    TMP DP  RH WIND       PRES   REMARKS
ROSWELL        FAIR      72  63  73 NE5       30.05R
ARTESIA        FAIR      72  63  73 NW7       30.04F
CARLSBAD       MOCLDY    72  68  87 NE5       30.01R
HOBBS          FAIR      72  61  68 SW5       30.03S


$$



USA.gov is the U.S. government's official web portal to all federal, state and local government web resources and services.